When you browse on this site, cookies collect data to enhance your experience and personalize the content and advertising you see.
Visit our Privacy Policy to learn more. By continuing to use the site, you agree to this use of cookies and data.
  • în România
  • Lista ţărilor
  • Pe 7 zile
  • Temperatura apei
  • Meteo pe hartă
  • Widget-uri
  • user-avatar
    Intrare

    Meteo pe oră la Yevlakh

    Astăzi, 15 Octombrie, Marţi

    Timp Temperatura Precipitaţii Vânt Presiune Umiditate
    00:00 +17°C° 0 mm 2 m/s 768 mmHg 62%
    01:00 +17°C° 0 mm 2 m/s 768 mmHg 69%
    02:00 +16°C° 0 mm 1 m/s 767 mmHg 77%
    03:00 +15°C° 0 mm 1 m/s 768 mmHg 84%
    04:00 +14°C° 0 mm 0 m/s 767 mmHg 85%
    05:00 +14°C° 0 mm 0 m/s 767 mmHg 87%
    06:00 +14°C° 0 mm 0 m/s 767 mmHg 88%
    07:00 +15°C° 0 mm 0 m/s 767 mmHg 80%
    08:00 +17°C° 0 mm 0 m/s 767 mmHg 72%
    09:00 +21°C° 0 mm 1 m/s 767 mmHg 64%
    10:00 +23°C° 0 mm 1 m/s 766 mmHg 56%
    11:00 +24°C° 0 mm 1 m/s 766 mmHg 49%
    12:00 +26°C° 0 mm 2 m/s 765 mmHg 42%
    13:00 +26°C° 0 mm 2 m/s 765 mmHg 39%
    14:00 +27°C° 0 mm 1 m/s 764 mmHg 36%
    15:00 +27°C° 0 mm 1 m/s 763 mmHg 34%
    16:00 +26°C° 0 mm 1 m/s 763 mmHg 38%
    17:00 +24°C° 0 mm 1 m/s 763 mmHg 41%
    18:00 +20°C° 0 mm 0 m/s 763 mmHg 45%
    19:00 +20°C° 0 mm 0 m/s 763 mmHg 47%
    20:00 +19°C° 0 mm 0 m/s 764 mmHg 49%
    21:00 +19°C° 0 mm 0 m/s 764 mmHg 51%
    22:00 +20°C° 0 mm 1 m/s 764 mmHg 52%
    23:00 +20°C° 0 mm 1 m/s 764 mmHg 54%

    Mâine, 16 Octombrie, Miercuri

    Timp Temperatura Precipitaţii Vânt Presiune Umiditate
    00:00 +19°C° 0 mm 1 m/s 763 mmHg 55%
    01:00 +18°C° 0 mm 1 m/s 763 mmHg 60%
    02:00 +18°C° 0 mm 1 m/s 764 mmHg 65%
    03:00 +16°C° 0 mm 1 m/s 764 mmHg 69%
    04:00 +15°C° 0 mm 0 m/s 764 mmHg 72%
    05:00 +14°C° 0 mm 0 m/s 763 mmHg 74%
    06:00 +14°C° 0 mm 0 m/s 763 mmHg 76%
    07:00 +16°C° 0 mm 0 m/s 763 mmHg 67%
    08:00 +18°C° 0 mm 0 m/s 764 mmHg 59%
    09:00 +21°C° 0 mm 0 m/s 764 mmHg 50%
    10:00 +24°C° 0 mm 1 m/s 763 mmHg 43%
    11:00 +26°C° 0 mm 1 m/s 763 mmHg 37%
    12:00 +28°C° 0 mm 1 m/s 763 mmHg 31%
    13:00 +28°C° 0 mm 1 m/s 762 mmHg 29%
    14:00 +29°C° 0 mm 1 m/s 762 mmHg 27%
    15:00 +30°C° 0 mm 1 m/s 762 mmHg 26%
    16:00 +28°C° 0 mm 1 m/s 762 mmHg 29%
    17:00 +26°C° 0 mm 1 m/s 762 mmHg 33%
    18:00 +24°C° 0 mm 2 m/s 763 mmHg 37%
    19:00 +24°C° 0 mm 2 m/s 763 mmHg 40%
    20:00 +22°C° 0 mm 3 m/s 763 mmHg 43%
    21:00 +21°C° 0 mm 3 m/s 764 mmHg 46%
    22:00 +20°C° 0 mm 3 m/s 764 mmHg 56%
    23:00 +19°C° 0 mm 3 m/s 764 mmHg 65%

    Poimâine, 17 Octombrie, Joi

    Timp Temperatura Precipitaţii Vânt Presiune Umiditate
    00:00 +19°C° 0 mm 3 m/s 764 mmHg 75%
    01:00 +18°C° 0 mm 3 m/s 764 mmHg 78%
    02:00 +18°C° 0 mm 2 m/s 765 mmHg 81%
    03:00 +17°C° 0 mm 2 m/s 765 mmHg 84%
    04:00 +17°C° 0 mm 2 m/s 765 mmHg 86%
    05:00 +16°C° 0 mm 1 m/s 765 mmHg 88%
    06:00 +16°C° 0 mm 1 m/s 765 mmHg 90%
    07:00 +19°C° 0 mm 1 m/s 765 mmHg 83%
    08:00 +20°C° 0 mm 1 m/s 765 mmHg 76%
    09:00 +22°C° 0 mm 1 m/s 765 mmHg 69%
    10:00 +23°C° 0 mm 2 m/s 765 mmHg 61%
    11:00 +25°C° 0 mm 2 m/s 765 mmHg 54%
    12:00 +26°C° 0 mm 2 m/s 764 mmHg 46%
    13:00 +27°C° 0 mm 2 m/s 764 mmHg 42%
    14:00 +27°C° 0 mm 2 m/s 764 mmHg 38%
    15:00 +28°C° 0 mm 2 m/s 763 mmHg 35%
    16:00 +27°C° 0 mm 2 m/s 763 mmHg 39%
    17:00 +25°C° 0 mm 2 m/s 764 mmHg 43%
    18:00 +23°C° 0 mm 1 m/s 764 mmHg 47%
    19:00 +23°C° 0 mm 2 m/s 764 mmHg 50%
    20:00 +21°C° 0 mm 2 m/s 764 mmHg 54%
    21:00 +20°C° 0 mm 3 m/s 764 mmHg 58%
    22:00 +19°C° 0 mm 3 m/s 764 mmHg 66%
    23:00 +18°C° 0 mm 2 m/s 764 mmHg 73%

    18 Octombrie, Vineri

    Timp Temperatura Precipitaţii Vânt Presiune Umiditate
    00:00 +18°C° 0 mm 2 m/s 763 mmHg 81%
    01:00 +18°C° 0 mm 1 m/s 763 mmHg 83%
    02:00 +18°C° 0 mm 1 m/s 763 mmHg 86%
    03:00 +15°C° 0 mm 0 m/s 763 mmHg 88%
    04:00 +15°C° 0 mm 0 m/s 763 mmHg 88%
    05:00 +15°C° 0 mm 0 m/s 763 mmHg 88%
    06:00 +15°C° 0 mm 0 m/s 763 mmHg 88%
    07:00 +16°C° 0 mm 0 m/s 762 mmHg 79%
    08:00 +18°C° 0 mm 0 m/s 762 mmHg 71%
    09:00 +20°C° 0 mm 0 m/s 762 mmHg 62%
    10:00 +24°C° 0 mm 1 m/s 762 mmHg 55%
    11:00 +25°C° 0 mm 1 m/s 761 mmHg 48%
    12:00 +27°C° 0 mm 1 m/s 761 mmHg 42%
    13:00 +27°C° 0 mm 1 m/s 760 mmHg 39%
    14:00 +28°C° 0 mm 1 m/s 760 mmHg 36%
    15:00 +29°C° 0 mm 1 m/s 760 mmHg 33%
    16:00 +27°C° 0 mm 1 m/s 760 mmHg 37%
    17:00 +26°C° 0 mm 1 m/s 760 mmHg 41%
    18:00 +24°C° 0 mm 2 m/s 760 mmHg 45%
    19:00 +24°C° 0 mm 2 m/s 761 mmHg 47%
    20:00 +23°C° 0 mm 2 m/s 761 mmHg 49%
    21:00 +21°C° 0 mm 2 m/s 761 mmHg 52%
    22:00 +21°C° 0 mm 2 m/s 761 mmHg 57%
    23:00 +20°C° 0 mm 2 m/s 761 mmHg 62%

    19 Octombrie, Sâmbătă

    Timp Temperatura Precipitaţii Vânt Presiune Umiditate
    00:00 +19°C° 0 mm 2 m/s 761 mmHg 67%
    01:00 +19°C° 0 mm 2 m/s 761 mmHg 70%
    02:00 +18°C° 0 mm 2 m/s 761 mmHg 74%
    03:00 +19°C° 0 mm 1 m/s 761 mmHg 78%
    04:00 +18°C° 0 mm 1 m/s 761 mmHg 79%
    05:00 +16°C° 0 mm 0 m/s 762 mmHg 80%
    06:00 +16°C° 0 mm 0 m/s 762 mmHg 82%
    07:00 +17°C° 0 mm 0 m/s 762 mmHg 73%
    08:00 +19°C° 0 mm 0 m/s 762 mmHg 65%
    09:00 +23°C° 0 mm 1 m/s 762 mmHg 57%
    10:00 +25°C° 0 mm 1 m/s 762 mmHg 51%
    11:00 +26°C° 0 mm 1 m/s 762 mmHg 46%
    12:00 +28°C° 0 mm 2 m/s 762 mmHg 41%
    13:00 +28°C° 0 mm 2 m/s 761 mmHg 38%
    14:00 +29°C° 0 mm 3 m/s 761 mmHg 36%
    15:00 +30°C° 0 mm 3 m/s 761 mmHg 33%
    16:00 +28°C° 0 mm 3 m/s 761 mmHg 37%
    17:00 +27°C° 0 mm 3 m/s 761 mmHg 41%
    18:00 +25°C° 0 mm 3 m/s 762 mmHg 44%
    19:00 +24°C° 0 mm 3 m/s 762 mmHg 50%
    20:00 +22°C° 0 mm 4 m/s 762 mmHg 56%
    21:00 +22°C° 0 mm 5 m/s 763 mmHg 62%
    22:00 +21°C° 0 mm 4 m/s 763 mmHg 66%
    23:00 +20°C° 0 mm 4 m/s 763 mmHg 70%

    20 Octombrie, Duminică

    Timp Temperatura Precipitaţii Vânt Presiune Umiditate
    00:00 +19°C° 0 mm 3 m/s 763 mmHg 74%
    01:00 +19°C° 0 mm 3 m/s 763 mmHg 76%
    02:00 +18°C° 0 mm 2 m/s 763 mmHg 78%
    03:00 +18°C° 0 mm 2 m/s 763 mmHg 80%
    04:00 +19°C° 0 mm 1 m/s 763 mmHg 82%
    05:00 +18°C° 0 mm 1 m/s 763 mmHg 84%
    06:00 +18°C° 0 mm 1 m/s 763 mmHg 85%
    07:00 +19°C° 0 mm 1 m/s 763 mmHg 79%
    08:00 +21°C° 0 mm 1 m/s 764 mmHg 72%
    09:00 +22°C° 0 mm 1 m/s 764 mmHg 65%
    10:00 +23°C° 0 mm 1 m/s 763 mmHg 58%
    11:00 +25°C° 0 mm 1 m/s 763 mmHg 51%
    12:00 +26°C° 0 mm 2 m/s 763 mmHg 44%
    13:00 +27°C° 0 mm 2 m/s 763 mmHg 42%
    14:00 +27°C° 0 mm 2 m/s 762 mmHg 41%
    15:00 +27°C° 0 mm 2 m/s 762 mmHg 39%
    16:00 +26°C° 0 mm 2 m/s 762 mmHg 42%
    17:00 +25°C° 0 mm 2 m/s 762 mmHg 45%
    18:00 +24°C° 0 mm 2 m/s 763 mmHg 48%
    19:00 +22°C° 0 mm 3 m/s 763 mmHg 50%
    20:00 +22°C° 0 mm 4 m/s 763 mmHg 51%
    21:00 +21°C° 0 mm 4 m/s 763 mmHg 53%
    22:00 +20°C° 0 mm 4 m/s 764 mmHg 57%
    23:00 +19°C° 0 mm 3 m/s 764 mmHg 61%
    Arată mai mult